[[{"header":{"parameterUnit":"m.s-1","parameterCategory":1,"la1":30.2991,"la2":30.254,"lo1":-89.0895,"lo2":-89.0444,"dy":0.0017,"dx":0.0017,"nx":28,"ny":28,"refTime":"2025-03-18T21:00:00:Z","depth":0,"parameterNumber":2,"parameterNumberName":"U-component_of_WINDS"},"data":[0,0,0,0,0,0,0,0,0,0,0,0,0,0,0,0,0,0,0,0,0,0,0,0,0,0,0,0,0,0,0,0,0,0,0,0,0,0,0,0,0,0,0,0,0,0,0,0,0,0,0,0,0,0,0,0,0,0,1.3785,1.3785,0,1.3792,1.3793,1.3793,1.3763,1.3762,1.3761,1.376,1.3767,1.3768,1.3769,0,0,0,0,0,0,0,0,0,0,0,0,0,1.3742,1.3743,1.3785,1.3785,1.3785,1.3792,1.3793,1.3793,1.3763,1.3762,1.3761,1.376,1.3767,1.3768,1.3769,0,0,0,0,0,0,0,0,0,0,0,0,0,1.3756,1.3743,1.3785,1.3771,1.377,1.3792,1.3793,1.3793,1.3763,1.3762,1.376,1.3759,1.3767,1.3768,1.377,1.3806,0,0,1.3774,1.3775,0,0,0,0,0,0,0,0,1.3755,1.3758,1.3773,1.3772,1.377,1.3775,1.378,1.3797,1.3763,1.3765,1.376,1.3758,1.3771,1.3772,1.3776,1.3806,1.3806,1.3774,1.3775,1.3776,1.3776,0,0,0,0,0,0,0,1.3754,1.3757,1.3788,1.3773,1.3772,1.3764,1.3764,1.3783,1.3776,1.3765,1.3763,1.3764,1.377,1.3775,1.3776,1.3806,1.3774,1.3776,1.3777,1.3777,1.3864,1.3865,0,0,0,0,0,0,1.3755,1.3757,1.3787,1.3788,1.3759,1.3765,1.3766,1.3775,1.3775,1.3774,1.3766,1.3763,1.3773,1.3775,1.3776,1.3817,1.3776,1.3777,1.3778,1.3863,1.3864,1.3866,0,0,0,0,0,0,1.3755,1.3758,1.3787,1.3772,1.3775,1.3768,1.3778,1.3776,1.3781,1.3776,1.3774,1.3772,1.3772,1.3774,1.3798,1.3817,1.3778,1.3779,1.3861,1.3863,1.3865,1.39,0,0,0,0,0,0,1.3754,1.3758,1.3773,1.3772,1.3776,1.3809,1.3779,1.3777,1.3784,1.378,1.3781,1.378,1.3771,1.3796,1.38,1.3818,1.3781,1.3859,1.3862,1.3864,1.3897,1.3903,1.3908,0,0,0,0,0,1.3752,1.3782,1.3773,1.3777,1.3793,1.381,1.3812,1.3802,1.3785,1.3799,1.3795,1.378,1.3815,1.3799,1.3803,1.3822,1.3858,1.3861,1.3864,1.3895,1.3902,1.3908,0,0,0,0,0,0,1.3785,1.3782,1.3772,1.3803,1.3807,1.3805,1.3822,1.381,1.3819,1.3815,1.3801,1.3802,1.3828,1.3827,1.381,1.3856,1.3833,1.3837,1.3855,1.3862,1.3867,1.3866,1.3782,0,0,0,0,0,1.3796,1.3811,1.3807,1.3835,1.3837,1.383,1.3837,1.3828,1.3832,1.3833,1.3831,1.3835,1.3846,1.3854,1.3865,1.3897,1.3896,1.3912,1.3918,1.3922,1.3926,1.3941,1.3947,1.3876,1.3876,1.3876,0,0,1.3819,1.3819,1.3829,1.3841,1.3844,1.3858,1.3831,1.3848,1.3859,1.3836,1.3858,1.3857,1.386,1.3887,1.39,1.3888,1.3945,1.3926,1.393,1.3931,1.3945,1.3951,1.3957,1.3878,1.3878,1.3877,0,0,1.3867,1.3869,1.3892,1.3894,1.3898,1.3892,1.3897,1.3897,1.3895,1.3917,1.39,1.3912,1.3933,1.3935,1.3939,1.3987,1.3973,1.3991,1.4019,1.4034,1.404,1.4044,1.406,1.4066,1.3994,1.3995,1.3995,0,1.3894,1.3916,1.3905,1.3922,1.3928,1.3908,1.3929,1.3932,1.3939,1.3943,1.393,1.3954,1.3955,1.3982,1.3994,1.3999,1.4003,1.399,1.404,1.4045,1.4049,1.4063,1.4069,1.3997,1.3996,1.3996,1.3996,0,1.3949,1.3964,1.3982,1.3988,1.3996,1.4015,1.4006,1.4015,1.4006,1.4001,1.4023,1.4023,1.4033,1.4039,1.403,1.4064,1.4057,1.4042,1.4019,1.4058,1.4071,1.4077,1.4,1.3999,1.3998,1.3998,0,0,1.4018,1.4017,1.4024,1.4025,1.4027,1.4038,1.4057,1.4066,1.4073,1.4078,1.4092,1.411,1.4096,1.41,1.4092,1.4105,1.4141,1.4089,1.4089,1.4097,1.4177,1.4186,1.4193,1.4132,1.4133,1.4134,1.4176,0,1.4064,1.4095,1.4085,1.4116,1.4129,1.411,1.4125,1.4128,1.4124,1.4134,1.413,1.4142,1.4124,1.4126,1.4138,1.4134,1.4157,1.4131,1.4144,1.4144,1.4142,1.42,1.4211,1.425,1.4181,1.4182,1.4183,0,1.4121,1.4128,1.4161,1.4159,1.4164,1.4178,1.4185,1.4195,1.4197,1.4193,1.4198,1.4186,1.4203,1.4181,1.4203,1.4186,1.4191,1.4189,1.4191,1.419,1.4165,1.42,1.4263,1.4268,1.4191,1.4191,1.419,0,1.4166,1.4183,1.4204,1.4207,1.4206,1.4216,1.4216,1.4217,1.4222,1.4228,1.4231,1.424,1.4244,1.425,1.424,1.4225,1.4263,1.4241,1.426,1.426,1.4267,1.4267,1.433,1.4273,1.4273,1.4273,1.4273,0,1.4217,1.4237,1.4224,1.4237,1.4258,1.4246,1.4268,1.4266,1.4267,1.4278,1.4263,1.4274,1.4261,1.4271,1.4263,1.4282,1.4284,1.4281,1.4278,1.4281,1.4282,1.4283,1.4279,1.4275,1.4274,1.4274,1.4274,0,1.427,1.4262,1.4284,1.4281,1.428,1.4296,1.4293,1.4305,1.43,1.4314,1.4317,1.4309,1.432,1.4311,1.4322,1.4317,1.4341,1.4335,1.434,1.4338,1.4356,1.4354,1.4422,1.443,1.4369,1.437,1.437,0,1.4302,1.4317,1.4315,1.4322,1.4323,1.4334,1.4339,1.4327,1.4334,1.4336,1.4347,1.4356,1.4363,1.438,1.4375,1.4383,1.4376,1.44,1.4377,1.4379,1.4374,1.4373,1.4374,1.4404,1.4404,1.4405,1.4405,0,1.436,1.4355,1.4363,1.437,1.4377,1.4381,1.4385,1.4391,1.4379,1.4387,1.4397,1.4403,1.4413,1.4421,1.4427,1.4427,1.4414,1.4413,1.4417,1.4419,1.4421,1.4418,1.435,1.4411,1.441,1.441,1.441,1.4409,1.4402,1.4413,1.4413,1.4423,1.4424,1.4428,1.4438,1.4434,1.4442,1.4449,1.4442,1.4454,1.4455,1.4461,1.4462,1.4471,1.4461,1.4468,1.447,1.4471,1.4473,1.4421,1.4473,1.4472,1.4472,1.4472,1.4472,0,1.4456,1.4455,1.4464,1.4469,1.4477,1.4464,1.4467,1.4474,1.4485,1.4486,1.4493,1.4504,1.4512,1.4508,1.4515,1.4523,1.4517,1.4525,1.4523,1.4523,1.4482,1.4477,1.453,1.453,1.453,1.453,1.453,1.453,1.4486,1.4504,1.4499,1.4518,1.4516,1.4528,1.453,1.4533,1.4534,1.4547,1.4554,1.4551,1.455,1.4557,1.4564,1.4562,1.4565,1.4574,1.457,1.4532,1.4526,1.4521,1.4516,1.4575,1.4575,1.461,1.4611,1.4611]},{"header":{"parameterUnit":"m.s-1","parameterCategory":1,"la1":30.2991,"la2":30.254,"lo1":-89.0895,"lo2":-89.0444,"dy":0.0017,"dx":0.0017,"nx":28,"ny":28,"refTime":"2025-03-18T21:00:00:Z","depth":0,"parameterNumber":3,"parameterNumberName":"V-component_of_WINDS"},"data":[0,0,0,0,0,0,0,0,0,0,0,0,0,0,0,0,0,0,0,0,0,0,0,0,0,0,0,0,0,0,0,0,0,0,0,0,0,0,0,0,0,0,0,0,0,0,0,0,0,0,0,0,0,0,0,0,0,0,7.8197,7.8198,0,7.8262,7.8262,7.8263,7.8166,7.8162,7.8159,7.8156,7.8218,7.8222,7.8227,0,0,0,0,0,0,0,0,0,0,0,0,0,7.7984,7.7988,7.8197,7.8198,7.8198,7.8262,7.8263,7.8263,7.8166,7.8162,7.8158,7.8154,7.8216,7.8222,7.8227,0,0,0,0,0,0,0,0,0,0,0,0,0,7.8065,7.799,7.8197,7.8158,7.8155,7.8261,7.8263,7.8264,7.8167,7.8162,7.8157,7.8152,7.8214,7.8221,7.8228,7.8374,0,0,7.825,7.8253,0,0,0,0,0,0,0,0,7.8061,7.8073,7.8163,7.8161,7.8158,7.8201,7.821,7.8301,7.8169,7.8162,7.8156,7.815,7.8216,7.8222,7.8246,7.8377,7.838,7.8251,7.8255,7.8258,7.826,0,0,0,0,0,0,0,7.8055,7.807,7.8222,7.8164,7.8161,7.8135,7.8141,7.8227,7.8217,7.8163,7.8156,7.8165,7.8213,7.8239,7.8246,7.8381,7.8251,7.8257,7.8262,7.8264,7.8634,7.864,0,0,0,0,0,0,7.8055,7.8066,7.822,7.8224,7.8096,7.8143,7.815,7.8192,7.8215,7.8214,7.8169,7.816,7.8229,7.8238,7.8248,7.842,7.8258,7.8265,7.8269,7.8629,7.8636,7.8642,0,0,0,0,0,0,7.8051,7.807,7.8218,7.8143,7.816,7.8153,7.82,7.8196,7.8221,7.8221,7.8218,7.8198,7.8225,7.8238,7.8344,7.8421,7.8268,7.8275,7.8622,7.8631,7.8639,7.8765,0,0,0,0,0,0,7.8045,7.8069,7.8125,7.8145,7.8165,7.8314,7.8205,7.8201,7.8235,7.8223,7.8246,7.8245,7.8222,7.8334,7.8351,7.8428,7.828,7.8615,7.8626,7.8636,7.8754,7.8777,7.8796,0,0,0,0,0,7.8038,7.8158,7.8129,7.8148,7.8235,7.8319,7.8329,7.8302,7.8241,7.8297,7.8297,7.8245,7.841,7.8345,7.8364,7.8444,7.861,7.8623,7.8635,7.8744,7.8772,7.8796,0,0,0,0,0,0,7.8145,7.816,7.8128,7.8258,7.8288,7.8302,7.8372,7.8332,7.8379,7.8366,7.8329,7.8335,7.8448,7.8457,7.8385,7.8586,7.85,7.8516,7.8576,7.8603,7.8623,7.8618,7.8286,0,0,0,0,0,7.8184,7.8252,7.8261,7.8374,7.8391,7.838,7.8415,7.8391,7.842,7.8432,7.8439,7.8468,7.8526,7.8565,7.8619,7.8755,7.8758,7.882,7.8841,7.8858,7.8872,7.8944,7.8971,7.8682,7.8682,7.8682,0,0,7.8265,7.8281,7.8326,7.8396,7.8417,7.8487,7.8391,7.8468,7.8519,7.8443,7.8543,7.855,7.8579,7.8701,7.8755,7.8712,7.8953,7.8874,7.8887,7.8892,7.8959,7.8987,7.9011,7.8691,7.8689,7.8688,0,0,7.8447,7.8468,7.8564,7.8587,7.862,7.8612,7.8635,7.8656,7.8657,7.8758,7.8702,7.8761,7.8863,7.8886,7.8911,7.9103,7.9057,7.9122,7.9231,7.9301,7.9324,7.9344,7.9411,7.9436,7.9137,7.9137,7.9137,0,7.8543,7.8647,7.8618,7.8701,7.8732,7.8669,7.8765,7.8788,7.8837,7.886,7.8811,7.8937,7.8952,7.9078,7.9125,7.9148,7.9172,7.9118,7.9324,7.9343,7.9361,7.9425,7.945,7.9144,7.9144,7.9143,7.9142,0,7.8762,7.8836,7.891,7.896,7.9,7.9089,7.9072,7.9116,7.9089,7.9085,7.9188,7.9205,7.926,7.9289,7.9263,7.9411,7.9383,7.933,7.9241,7.9397,7.9456,7.948,7.9155,7.9153,7.915,7.9148,0,0,7.9012,7.9047,7.9074,7.9096,7.9128,7.9183,7.9269,7.9325,7.9362,7.9398,7.9468,7.9556,7.9507,7.9535,7.9512,7.9574,7.9723,7.9512,7.9513,7.955,7.9885,7.9924,7.9953,7.9693,7.9698,7.9702,7.9882,0,7.9193,7.9343,7.932,7.9463,7.953,7.9471,7.9545,7.9572,7.9571,7.9626,7.9623,7.9686,7.9618,7.9634,7.9693,7.9693,7.979,7.9679,7.9756,7.9759,7.9749,7.9984,8.0025,8.0195,7.9905,7.9909,7.9912,0,7.9424,7.947,7.9621,7.9643,7.9669,7.9737,7.9786,7.984,7.9869,7.9864,7.9897,7.9861,7.9945,7.9858,7.9971,7.9897,7.9927,7.9931,7.9937,7.9942,7.9844,7.9993,8.0248,8.0273,7.9948,7.9946,7.9943,0,7.9589,7.9689,7.9792,7.9812,7.9841,7.9889,7.9903,7.9927,7.9962,8.0005,8.0027,8.0079,8.0106,8.0146,8.0125,8.0064,8.0243,8.0154,8.0239,8.024,8.0277,8.0275,8.054,8.03,8.03,8.0299,8.0299,0,7.9792,7.9887,7.9866,7.993,8.0033,8.0005,8.0108,8.0114,8.0136,8.0198,8.015,8.0209,8.0179,8.0235,8.022,8.0316,8.0329,8.0325,8.032,8.0329,8.0329,8.0346,8.0333,8.0306,8.0305,8.0303,8.0302,0,7.9994,7.9984,8.0092,8.0111,8.0118,8.0193,8.0208,8.0266,8.0262,8.0341,8.0358,8.0351,8.0415,8.0399,8.0468,8.0457,8.0578,8.0558,8.0569,8.0563,8.0649,8.064,8.0932,8.0968,8.0708,8.071,8.0712,0,8.0123,8.0195,8.0222,8.0261,8.0279,8.0342,8.0378,8.0353,8.0392,8.0431,8.0484,8.0544,8.0591,8.0695,8.0695,8.0748,8.0728,8.0826,8.0735,8.0742,8.0727,8.0722,8.0729,8.0844,8.0847,8.0849,8.0851,0,8.0353,8.0345,8.04,8.0454,8.0499,8.0539,8.0575,8.0609,8.0587,8.0633,8.0698,8.0735,8.0806,8.0866,8.0914,8.0926,8.0885,8.0881,8.0903,8.0912,8.0914,8.0912,8.0616,8.0873,8.0871,8.087,8.0868,8.0867,8.0521,8.0582,8.0611,8.0673,8.0698,8.0732,8.0788,8.0791,8.0846,8.0903,8.0885,8.096,8.0986,8.1047,8.1066,8.1122,8.1085,8.1117,8.1125,8.1133,8.1143,8.0907,8.1131,8.1131,8.113,8.1129,8.1129,0,8.0748,8.0764,8.0822,8.0874,8.0923,8.0882,8.092,8.0962,8.1029,8.1058,8.1106,8.1181,8.1238,8.1244,8.1298,8.1342,8.1324,8.1357,8.1352,8.1355,8.1174,8.1149,8.137,8.137,8.137,8.137,8.137,8.137,8.0871,8.0971,8.0966,8.1078,8.1092,8.1166,8.1191,8.1222,8.1245,8.1332,8.138,8.1384,8.1403,8.1458,8.1509,8.1508,8.153,8.1569,8.1562,8.1392,8.1368,8.1345,8.1321,8.1574,8.1575,8.1737,8.1739,8.174]}]]